| time (UTC) | temp F | wind direction | speed MPH | gust MPH | rain 1hr in | rain 24hr in | rain mn in | humidity % | barometer mb |
| 20260506191044 | 51 | 25 | 15.0 | 20.0 | 0.00 | 0.00 | 0.00 | 80 | 1005.5 |
| 20260506190319 | 51 | 28 | 14.0 | 26.0 | 0.00 | 0.00 | 0.00 | 80 | 1005.6 |
| 20260506185755 | 51 | 5 | 14.0 | 23.0 | 0.00 | 0.00 | 0.00 | 80 | 1005.6 |
| 20260506185251 | 51 | 5 | 15.0 | 24.0 | 0.00 | 0.00 | 0.00 | 80 | 1005.4 |
| 20260506184746 | 52 | 26 | 14.0 | 24.0 | 0.00 | 0.00 | 0.00 | 80 | 1005.1 |
| 20260506184240 | 52 | 17 | 10.0 | 19.0 | 0.00 | 0.00 | 0.00 | 80 | 1005.4 |
| 20260506183740 | 52 | 16 | 7.0 | 19.0 | 0.00 | 0.00 | 0.00 | 81 | 1005.2 |
| 20260506183240 | 52 | 5 | 4.0 | 12.0 | 0.00 | 0.00 | 0.00 | 80 | 1005.2 |
| 20260506182740 | 52 | 57 | 1.0 | 9.0 | 0.00 | 0.00 | 0.00 | 81 | 1005.1 |
| 20260506182238 | 52 | 57 | 0.0 | 4.0 | 0.00 | 0.00 | 0.00 | 81 | 1005.1 |
| 20260506181737 | 52 | 57 | 1.0 | 4.0 | 0.00 | 0.00 | 0.00 | 81 | 1005.1 |
| 20260506181234 | 52 | 57 | 1.0 | 4.0 | 0.00 | 0.00 | 0.00 | 81 | 1005.0 |
| 20260506180733 | 52 | 57 | 1.0 | 4.0 | 0.00 | 0.00 | 0.00 | 81 | 1004.8 |
| 20260506180231 | 52 | 57 | 2.0 | 5.0 | 0.00 | 0.00 | 0.00 | 80 | 1004.8 |
| 20260506180000 | 52 | 57 | 3.0 | 5.0 | 0.00 | 0.00 | 0.00 | 79 | 1004.5 |
| 20260506175232 | 52 | 57 | 2.0 | 5.0 | 0.00 | 0.00 | 0.00 | 78 | 1004.6 |
| 20260506174730 | 53 | 57 | 2.0 | 5.0 | 0.00 | 0.00 | 0.00 | 78 | 1004.5 |
| 20260506174231 | 53 | 57 | 3.0 | 7.0 | 0.00 | 0.00 | 0.00 | 78 | 1004.6 |
| 20260506173727 | 53 | 57 | 3.0 | 7.0 | 0.00 | 0.00 | 0.00 | 78 | 1004.3 |
| 20260506173227 | 53 | 57 | 3.0 | 9.0 | 0.00 | 0.00 | 0.00 | 77 | 1004.4 |
| 20260506172726 | 53 | 57 | 4.0 | 9.0 | 0.00 | 0.00 | 0.00 | 77 | 1004.8 |
| 20260506172228 | 53 | 58 | 3.0 | 8.0 | 0.00 | 0.00 | 0.00 | 77 | 1004.5 |
| 20260506171956 | 53 | 58 | 3.0 | 7.0 | 0.00 | 0.00 | 0.00 | 76 | 1004.3 |
| 20260506171231 | 53 | 58 | 4.0 | 3.0 | 0.00 | 0.00 | 0.00 | 76 | 1004.4 |
| 20260506171015 | 53 | 58 | 4.0 | 2.0 | 0.00 | 0.00 | 0.00 | 77 | 1004.2 |
| 20260506170631 | 53 | 0.0 | 0.0 | 0.00 | 0.00 | 0.00 | 76 | 1004.5 | |
| 20260506165445 | 0 | 0.0 | 0.0 | 0.00 | 0.00 | 0.00 | 1004.4 | ||
| 20260506165130 | 53 | 64 | 4.0 | 10.0 | 0.00 | 0.00 | 0.00 | 76 | |
| 20260506164358 | 53 | 82 | 3.0 | 9.0 | 0.00 | 0.00 | 0.00 | 77 | |
| 20260506163858 | 53 | 82 | 4.0 | 9.0 | 0.00 | 0.00 | 0.00 | 76 | |
| 20260506163357 | 53 | 82 | 3.0 | 7.0 | 0.00 | 0.00 | 0.00 | 76 | |
| 20260506162856 | 53 | 57 | 2.0 | 7.0 | 0.00 | 0.00 | 0.00 | 77 | |
| 20260506162356 | 53 | 55 | 3.0 | 8.0 | 0.00 | 0.00 | 0.00 | 77 | |
| 20260506161856 | 53 | 55 | 5.0 | 12.0 | 0.00 | 0.00 | 0.00 | 77 | |
| 20260506161354 | 54 | 55 | 5.0 | 12.0 | 0.00 | 0.00 | 0.00 | 78 | |
| 20260506160852 | 53 | 59 | 5.0 | 11.0 | 0.00 | 0.00 | 0.00 | 77 | |
| 20260506160353 | 53 | 70 | 6.0 | 14.0 | 0.00 | 0.00 | 0.00 | 75 | |
| 20260506155853 | 53 | 57 | 5.0 | 14.0 | 0.00 | 0.00 | 0.00 | 76 | |
| 20260506155352 | 53 | 46 | 4.0 | 11.0 | 0.00 | 0.00 | 0.00 | 76 | |
| 20260506154853 | 53 | 68 | 5.0 | 14.0 | 0.00 | 0.00 | 0.00 | 76 | |
| 20260506154352 | 53 | 100 | 5.0 | 14.0 | 0.00 | 0.00 | 0.00 | 75 | |
| 20260506153855 | 53 | 82 | 5.0 | 10.0 | 0.00 | 0.00 | 0.00 | 75 | |
| 20260506153351 | 53 | 78 | 6.0 | 15.0 | 0.00 | 0.00 | 0.00 | 75 | |
| 20260506152850 | 53 | 71 | 8.0 | 17.0 | 0.00 | 0.00 | 0.00 | 75 | |
| 20260506152352 | 53 | 67 | 10.0 | 20.0 | 0.00 | 0.00 | 0.00 | 74 | |
| 20260506151850 | 54 | 78 | 10.0 | 20.0 | 0.00 | 0.00 | 0.00 | 74 | |
| 20260506151350 | 54 | 55 | 9.0 | 18.0 | 0.00 | 0.00 | 0.00 | 74 | |
| 20260506150850 | 54 | 62 | 8.0 | 17.0 | 0.00 | 0.00 | 0.00 | 74 | |
| 20260506150349 | 54 | 70 | 9.0 | 17.0 | 0.00 | 0.00 | 0.00 | 75 | |
| 20260506150122 | 54 | 47 | 11.0 | 18.0 | 0.00 | 0.00 | 0.00 | 76 | |
| 20260506150118 | 54 | 78 | 10.0 | 17.0 | 0.00 | 0.00 | 0.00 | 75 | |
| 20260506144841 | 53 | 49 | 13.0 | 20.0 | 0.00 | 0.00 | 0.00 | 75 | |
| 20260506144340 | 54 | 73 | 12.0 | 20.0 | 0.00 | 0.00 | 0.00 | 75 | |
| 20260506143842 | 54 | 74 | 10.0 | 23.0 | 0.00 | 0.00 | 0.00 | 76 | |
| 20260506143341 | 54 | 88 | 11.0 | 23.0 | 0.00 | 0.00 | 0.00 | 76 | |
| 20260506142840 | 53 | 78 | 12.0 | 21.0 | 0.00 | 0.00 | 0.00 | 75 | |
| 20260506142340 | 53 | 66 | 13.0 | 23.0 | 0.00 | 0.00 | 0.00 | 75 | |
| 20260506141846 | 53 | 69 | 12.0 | 23.0 | 0.00 | 0.00 | 0.00 | 75 | |
| 20260506141840 | 53 | 48 | 12.0 | 23.0 | 0.00 | 0.00 | 0.00 | 76 | |
| 20260506141109 | 53 | 55 | 11.0 | 23.0 | 0.00 | 0.00 | 0.00 | 75 | |
| 20260506140338 | 53 | 63 | 10.0 | 18.0 | 0.00 | 0.00 | 0.00 | 75 | |
| 20260506135839 | 53 | 46 | 10.0 | 21.0 | 0.00 | 0.00 | 0.00 | 75 | |
| 20260506135336 | 53 | 55 | 12.0 | 21.0 | 0.00 | 0.00 | 0.00 | 75 | |
| 20260506134836 | 53 | 48 | 11.0 | 23.0 | 0.00 | 0.00 | 0.00 | 75 | |
| 20260506134336 | 53 | 74 | 11.0 | 23.0 | 0.00 | 0.00 | 0.00 | 74 | |
| 20260506134105 | 53 | 57 | 11.0 | 19.0 | 0.00 | 0.00 | 0.00 | 74 | |
| 20260506133328 | 53 | 60 | 12.0 | 20.0 | 0.00 | 0.00 | 0.00 | 75 | |
| 20260506132820 | 52 | 59 | 13.0 | 23.0 | 0.00 | 0.00 | 0.00 | 75 | |
| 20260506132316 | 52 | 52 | 10.0 | 23.0 | 0.00 | 0.00 | 0.00 | 76 | |
| 20260506131816 | 52 | 55 | 8.0 | 20.0 | 0.00 | 0.00 | 0.00 | 75 | |
| 20260506131317 | 52 | 69 | 8.0 | 20.0 | 0.00 | 0.00 | 0.00 | 75 | |
| 20260506130816 | 52 | 90 | 8.0 | 17.0 | 0.00 | 0.00 | 0.00 | 73 | |
| 20260506130317 | 52 | 66 | 10.0 | 25.0 | 0.00 | 0.00 | 0.00 | 73 | |
| 20260506125815 | 52 | 58 | 11.0 | 25.0 | 0.00 | 0.00 | 0.00 | 72 | |
| 20260506125544 | 53 | 57 | 9.0 | 23.0 | 0.00 | 0.00 | 0.00 | 72 | |
| 20260506124813 | 53 | 72 | 10.0 | 23.0 | 0.00 | 0.00 | 0.00 | 72 | |
| 20260506124544 | 53 | 51 | 13.0 | 27.0 | 0.00 | 0.00 | 0.00 | 74 | |
| 20260506123813 | 52 | 59 | 14.0 | 30.0 | 0.00 | 0.00 | 0.00 | 71 | |
| 20260506123540 | 52 | 65 | 15.0 | 30.0 | 0.00 | 0.00 | 0.00 | 71 | |
| 20260506122810 | 53 | 71 | 16.0 | 31.0 | 0.00 | 0.00 | 0.00 | 71 | |
| 20260506122310 | 53 | 42 | 17.0 | 31.0 | 0.00 | 0.00 | 0.00 | 71 | |
| 20260506121809 | 53 | 68 | 20.0 | 34.0 | 0.00 | 0.00 | 0.00 | 74 | |
| 20260506121308 | 52 | 36 | 20.0 | 34.0 | 0.00 | 0.00 | 0.00 | 74 | |
| 20260506120811 | 52 | 38 | 19.0 | 28.0 | 0.00 | 0.00 | 0.00 | 73 | |
| 20260506120259 | 52 | 51 | 17.0 | 28.0 | 0.00 | 0.00 | 0.00 | 75 | |
| 20260506115751 | 52 | 38 | 14.0 | 24.0 | 0.00 | 0.00 | 0.00 | 76 | |
| 20260506115242 | 52 | 62 | 13.0 | 27.0 | 0.00 | 0.00 | 0.00 | 77 | |
| 20260506114737 | 52 | 70 | 15.0 | 27.0 | 0.00 | 0.00 | 0.00 | 77 | |
| 20260506114502 | 52 | 61 | 17.0 | 27.0 | 0.00 | 0.00 | 0.00 | 77 | |
| 20260506113719 | 52 | 55 | 16.0 | 27.0 | 0.00 | 0.00 | 0.00 | 77 | |
| 20260506113216 | 52 | 48 | 14.0 | 27.0 | 0.00 | 0.00 | 0.00 | 76 | |
| 20260506112710 | 52 | 67 | 14.0 | 25.0 | 0.00 | 0.00 | 0.00 | 76 | |
| 20260506112433 | 52 | 44 | 14.0 | 21.0 | 0.00 | 0.00 | 0.00 | 77 | |
| 20260506111651 | 52 | 58 | 12.0 | 22.0 | 0.00 | 0.00 | 0.00 | 76 | |
| 20260506111150 | 52 | 28 | 15.0 | 26.0 | 0.00 | 0.00 | 0.00 | 76 | |
| 20260506110636 | 51 | 44 | 15.0 | 26.0 | 0.00 | 0.00 | 0.00 | 75 | |
| 20260506110125 | 51 | 46 | 15.0 | 24.0 | 0.00 | 0.00 | 0.00 | 75 | |
| 20260506105616 | 51 | 42 | 16.0 | 24.0 | 0.00 | 0.00 | 0.00 | 74 | |
| 20260506105117 | 51 | 78 | 17.0 | 29.0 | 0.00 | 0.00 | 0.00 | 76 | |
| 20260506104616 | 51 | 63 | 17.0 | 29.0 | 0.00 | 0.00 | 0.00 | 75 | |
| 20260506104116 | 51 | 54 | 16.0 | 27.0 | 0.00 | 0.00 | 0.00 | 76 | |
| 20260506103616 | 51 | 57 | 17.0 | 27.0 | 0.00 | 0.00 | 0.00 | 75 | |
| 20260506103346 | 51 | 24 | 17.0 | 27.0 | 0.00 | 0.00 | 0.00 | 75 | |
| 20260506102846 | 51 | 61 | 19.0 | 30.0 | 0.00 | 0.00 | 0.00 | 74 | |
| 20260506102115 | 51 | 51 | 21.0 | 35.0 | 0.00 | 0.01 | 0.00 | 74 | |
| 20260506101618 | 51 | 53 | 20.0 | 35.0 | 0.00 | 0.01 | 0.00 | 74 | |
| 20260506101112 | 51 | 61 | 19.0 | 30.0 | 0.00 | 0.01 | 0.00 | 74 | |
| 20260506100611 | 51 | 43 | 19.0 | 32.0 | 0.00 | 0.01 | 0.00 | 74 | |
| 20260506100119 | 51 | 47 | 19.0 | 32.0 | 0.00 | 0.01 | 0.00 | 74 | |
| 20260506095842 | 51 | 50 | 19.0 | 30.0 | 0.00 | 0.01 | 0.00 | 74 | |
| 20260506095112 | 51 | 61 | 18.0 | 27.0 | 0.00 | 0.01 | 0.00 | 75 | |
| 20260506094612 | 51 | 43 | 18.0 | 29.0 | 0.00 | 0.01 | 0.00 | 74 | |
| 20260506094111 | 51 | 52 | 18.0 | 31.0 | 0.00 | 0.01 | 0.00 | 73 | |
| 20260506093613 | 51 | 52 | 20.0 | 33.0 | 0.00 | 0.01 | 0.00 | 73 | |
| 20260506093113 | 51 | 51 | 20.0 | 33.0 | 0.00 | 0.01 | 0.00 | 72 | |
| 20260506092607 | 51 | 62 | 18.0 | 30.0 | 0.00 | 0.01 | 0.00 | 73 | |
| 20260506092108 | 51 | 42 | 15.0 | 30.0 | 0.00 | 0.01 | 0.00 | 73 | |
| 20260506091607 | 51 | 39 | 16.0 | 28.0 | 0.00 | 0.01 | 0.00 | 76 | |
| 20260506091109 | 51 | 28 | 17.0 | 28.0 | 0.00 | 0.01 | 0.00 | 74 | |
| 20260506090607 | 51 | 32 | 15.0 | 24.0 | 0.00 | 0.01 | 0.00 | 76 | |
| 20260506090107 | 51 | 23 | 16.0 | 24.0 | 0.00 | 0.01 | 0.00 | 75 | |
| 20260506085608 | 51 | 32 | 17.0 | 26.0 | 0.00 | 0.01 | 0.00 | 76 | |
| 20260506085340 | 51 | 40 | 17.0 | 27.0 | 0.00 | 0.01 | 0.00 | 75 | |
| 20260506084609 | 51 | 26 | 17.0 | 27.0 | 0.00 | 0.01 | 0.00 | 76 | |
| 20260506084102 | 51 | 59 | 17.0 | 29.0 | 0.00 | 0.01 | 0.00 | 77 | |
| 20260506083551 | 51 | 47 | 15.0 | 29.0 | 0.00 | 0.01 | 0.00 | 78 | |
| 20260506083053 | 51 | 0 | 14.0 | 26.0 | 0.00 | 0.01 | 0.00 | 78 | |
| 20260506082552 | 51 | 49 | 14.0 | 26.0 | 0.00 | 0.01 | 0.00 | 79 | |
| 20260506082051 | 51 | 35 | 14.0 | 24.0 | 0.00 | 0.01 | 0.00 | 79 | |
| 20260506081552 | 51 | 28 | 16.0 | 34.0 | 0.00 | 0.01 | 0.00 | 81 | |
| 20260506081053 | 51 | 28 | 17.0 | 34.0 | 0.00 | 0.01 | 0.00 | 79 | |
| 20260506080552 | 51 | 44 | 16.0 | 28.0 | 0.00 | 0.01 | 0.00 | 80 | |
| 20260506073513 | 50 | 42 | 13.0 | 24.0 | 0.00 | 0.01 | 0.00 | 85 | |
| 20260506073013 | 50 | 30 | 14.0 | 24.0 | 0.00 | 0.01 | 0.00 | 85 | |
| 20260506072513 | 50 | 13 | 16.0 | 27.0 | 0.00 | 0.01 | 0.00 | 84 | |
| 20260506072015 | 50 | 11 | 16.0 | 27.0 | 0.00 | 0.01 | 0.00 | 84 | |
| 20260506071514 | 50 | 15 | 16.0 | 29.0 | 0.00 | 0.01 | 0.00 | 84 | |
| 20260506071014 | 50 | 21 | 14.0 | 29.0 | 0.00 | 0.01 | 0.00 | 84 | |
| 20260506070513 | 50 | 29 | 15.0 | 25.0 | 0.00 | 0.01 | 0.00 | 84 | |
| 20260506062417 | 50 | 23 | 13.0 | 20.0 | 0.00 | 0.01 | 0.00 | 84 | |
| 20260506061917 | 50 | 19 | 13.0 | 20.0 | 0.00 | 0.01 | 0.00 | 84 | |
| 20260506061419 | 50 | 38 | 12.0 | 20.0 | 0.00 | 0.01 | 0.00 | 84 | |
| 20260506060917 | 50 | 5 | 11.0 | 20.0 | 0.00 | 0.01 | 0.00 | 84 | |
| 20260506060417 | 50 | 26 | 12.0 | 19.0 | 0.00 | 0.01 | 0.00 | 84 | |
| 20260506050902 | 49 | 37 | 9.0 | 15.0 | 0.00 | 0.01 | 0.00 | 86 | |
| 20260506050353 | 49 | 50 | 9.0 | 17.0 | 0.00 | 0.01 | 0.00 | 86 | |
| 20260506044833 | 49 | 32 | 10.0 | 18.0 | 0.00 | 0.01 | 0.00 | 86 | |
| 20260506044327 | 49 | 22 | 11.0 | 18.0 | 0.00 | 0.01 | 0.00 | 86 | |
| 20260506044320 | 49 | 24 | 12.0 | 19.0 | 0.00 | 0.01 | 0.00 | 86 | |
| 20260506043314 | 49 | 34 | 12.0 | 19.0 | 0.00 | 0.01 | 0.00 | 87 | |
| 20260506042803 | 49 | 17 | 13.0 | 20.0 | 0.00 | 0.01 | 0.00 | 87 | |
| 20260506042532 | 49 | 26 | 13.0 | 20.0 | 0.00 | 0.01 | 0.00 | 88 | |
| 20260506041800 | 50 | 22 | 13.0 | 18.0 | 0.00 | 0.01 | 0.00 | 88 | |
| 20260506041307 | 49 | 15 | 14.0 | 23.0 | 0.00 | 0.01 | 0.00 | 88 | |
| 20260506041302 | 49 | 22 | 14.0 | 18.0 | 0.00 | 0.01 | 0.00 | 88 | |
| 20260506040530 | 49 | 22 | 14.0 | 23.0 | 0.00 | 0.01 | 0.00 | 89 | |
| 20260506035802 | 49 | 18 | 13.0 | 19.0 | 0.00 | 0.01 | 0.00 | 89 | |
| 20260506035306 | 49 | 23 | 13.0 | 21.0 | 0.00 | 0.01 | 0.00 | 90 | |
| 20260506035300 | 49 | 20 | 12.0 | 19.0 | 0.00 | 0.01 | 0.00 | 90 | |
| 20260506034300 | 49 | 24 | 14.0 | 21.0 | 0.00 | 0.01 | 0.00 | 90 | |
| 20260506033805 | 49 | 9 | 14.0 | 20.0 | 0.00 | 0.01 | 0.00 | 90 | |
| 20260506033801 | 49 | 17 | 14.0 | 20.0 | 0.00 | 0.01 | 0.00 | 90 | |
| 20260506032803 | 49 | 9 | 15.0 | 20.0 | 0.00 | 0.01 | 0.00 | 90 | |
| 20260506032305 | 50 | 31 | 16.0 | 24.0 | 0.00 | 0.01 | 0.00 | 90 | |
| 20260506031803 | 50 | 17 | 17.0 | 24.0 | 0.00 | 0.01 | 0.00 | 91 | |
| 20260506031301 | 50 | 10 | 16.0 | 23.0 | 0.00 | 0.01 | 0.00 | 91 | |
| 20260506030748 | 50 | 351 | 15.0 | 23.0 | 0.00 | 0.01 | 0.00 | 91 | |
| 20260506030244 | 49 | 21 | 15.0 | 22.0 | 0.00 | 0.01 | 0.00 | 91 | |
| 20260506025735 | 50 | 0 | 15.0 | 21.0 | 0.00 | 0.01 | 0.00 | 91 | |
| 20260506025230 | 49 | 355 | 14.0 | 21.0 | 0.00 | 0.01 | 0.00 | 91 | |
| 20260506024723 | 49 | 13 | 13.0 | 18.0 | 0.00 | 0.01 | 0.00 | 91 | |
| 20260506024719 | 49 | 14 | 14.0 | 21.0 | 0.00 | 0.01 | 0.00 | 91 | |
| 20260506023711 | 49 | 9 | 12.0 | 18.0 | 0.00 | 0.01 | 0.00 | 91 | |
| 20260506023204 | 49 | 24 | 13.0 | 22.0 | 0.00 | 0.01 | 0.00 | 91 | |
| 20260506022657 | 49 | 10 | 12.0 | 22.0 | 0.00 | 0.01 | 0.00 | 91 | |
| 20260506022152 | 49 | 17 | 14.0 | 18.0 | 0.00 | 0.01 | 0.00 | 91 | |
| 20260506022148 | 49 | 19 | 12.0 | 17.0 | 0.00 | 0.01 | 0.00 | 91 | |
| 20260506021141 | 49 | 18 | 13.0 | 18.0 | 0.00 | 0.01 | 0.00 | 91 | |
| 20260506020634 | 49 | 24 | 12.0 | 18.0 | 0.00 | 0.01 | 0.00 | 91 | |
| 20260506020357 | 49 | 9 | 12.0 | 16.0 | 0.00 | 0.01 | 0.00 | 90 | |
| 20260506015622 | 49 | 17 | 12.0 | 18.0 | 0.00 | 0.01 | 0.00 | 90 | |
| 20260506015114 | 49 | 26 | 12.0 | 18.0 | 0.00 | 0.01 | 0.00 | 90 | |
| 20260506014609 | 49 | 17 | 10.0 | 16.0 | 0.00 | 0.01 | 0.00 | 90 | |
| 20260506014059 | 49 | 23 | 10.0 | 15.0 | 0.00 | 0.01 | 0.00 | 90 | |
| 20260506013556 | 49 | 15 | 10.0 | 16.0 | 0.00 | 0.01 | 0.00 | 90 | |
| 20260506013049 | 49 | 18 | 11.0 | 16.0 | 0.00 | 0.01 | 0.00 | 89 | |
| 20260506012544 | 49 | 22 | 12.0 | 16.0 | 0.00 | 0.01 | 0.00 | 90 | |
| 20260506012309 | 49 | 21 | 11.0 | 16.0 | 0.00 | 0.01 | 0.00 | 89 | |
| 20260506011527 | 49 | 27 | 11.0 | 16.0 | 0.00 | 0.01 | 0.00 | 89 | |
| 20260506011025 | 49 | 21 | 11.0 | 16.0 | 0.00 | 0.01 | 0.00 | 89 | |
| 20260506010517 | 49 | 24 | 11.0 | 16.0 | 0.00 | 0.01 | 0.00 | 89 | |
| 20260506010014 | 49 | 22 | 11.0 | 16.0 | 0.00 | 0.01 | 0.00 | 89 | |
| 20260506005508 | 49 | 31 | 11.0 | 18.0 | 0.00 | 0.01 | 0.00 | 89 | |
| 20260506005002 | 49 | 24 | 11.0 | 18.0 | 0.00 | 0.01 | 0.00 | 89 | |
| 20260506004455 | 49 | 19 | 11.0 | 18.0 | 0.00 | 0.01 | 0.00 | 89 | |
| 20260506004450 | 49 | 22 | 11.0 | 17.0 | 0.00 | 0.01 | 0.00 | 89 | |
| 20260506003444 | 49 | 18 | 11.0 | 17.0 | 0.00 | 0.01 | 0.00 | 89 | |
| 20260506003210 | 49 | 18 | 10.0 | 17.0 | 0.00 | 0.01 | 0.00 | 89 | |
| 20260506002433 | 49 | 18 | 10.0 | 17.0 | 0.00 | 0.01 | 0.00 | 88 | |
| 20260506001927 | 49 | 17 | 11.0 | 17.0 | 0.00 | 0.01 | 0.00 | 88 | |
| 20260506001419 | 49 | 5 | 11.0 | 17.0 | 0.00 | 0.01 | 0.00 | 88 | |
| 20260506000915 | 49 | 26 | 11.0 | 17.0 | 0.00 | 0.01 | 0.00 | 88 | |
| 20260506000405 | 49 | 13 | 11.0 | 17.0 | 0.00 | 0.01 | 0.00 | 88 | |
| 20260505235902 | 49 | 26 | 12.0 | 17.0 | 0.00 | 0.01 | 0.00 | 88 | |
| 20260505235355 | 49 | 20 | 13.0 | 17.0 | 0.00 | 0.01 | 0.00 | 88 | |
| 20260505235122 | 49 | 19 | 14.0 | 19.0 | 0.00 | 0.01 | 0.00 | 88 | |
| 20260505234345 | 49 | 17 | 13.0 | 19.0 | 0.00 | 0.01 | 0.00 | 88 | |
| 20260505233834 | 49 | 17 | 11.0 | 19.0 | 0.00 | 0.01 | 0.00 | 88 | |
| 20260505233608 | 49 | 18 | 11.0 | 20.0 | 0.00 | 0.01 | 0.00 | 88 | |
| 20260505232827 | 49 | 9 | 12.0 | 20.0 | 0.00 | 0.01 | 0.00 | 87 | |
| 20260505232320 | 49 | 14 | 13.0 | 21.0 | 0.00 | 0.01 | 0.00 | 87 | |
| 20260505231814 | 49 | 15 | 13.0 | 21.0 | 0.00 | 0.01 | 0.00 | 87 | |
| 20260505231304 | 49 | 5 | 13.0 | 18.0 | 0.00 | 0.01 | 0.00 | 87 | |
| 20260505230802 | 49 | 17 | 13.0 | 20.0 | 0.00 | 0.01 | 0.00 | 87 | |
| 20260505230258 | 49 | 38 | 14.0 | 24.0 | 0.00 | 0.01 | 0.00 | 87 | |
| 20260505225750 | 49 | 22 | 15.0 | 24.0 | 0.00 | 0.01 | 0.00 | 87 | |
| 20260505225245 | 49 | 13 | 15.0 | 25.0 | 0.00 | 0.01 | 0.00 | 87 | |
| 20260505224738 | 49 | 17 | 16.0 | 25.0 | 0.00 | 0.01 | 0.00 | 87 | |
| 20260505224233 | 49 | 12 | 15.0 | 25.0 | 0.00 | 0.01 | 0.00 | 87 | |
| 20260505223725 | 49 | 20 | 15.0 | 22.0 | 0.00 | 0.01 | 0.00 | 87 | |
| 20260505223721 | 49 | 20 | 14.0 | 22.0 | 0.00 | 0.01 | 0.00 | 87 | |
| 20260505222947 | 49 | 15 | 15.0 | 24.0 | 0.00 | 0.01 | 0.00 | 87 | |
| 20260505222210 | 49 | 20 | 15.0 | 24.0 | 0.00 | 0.01 | 0.00 | 87 | |
| 20260505221702 | 49 | 13 | 14.0 | 24.0 | 0.00 | 0.01 | 0.00 | 88 | |
| 20260505221154 | 49 | 15 | 14.0 | 23.0 | 0.00 | 0.01 | 0.00 | 88 | |
| 20260505220650 | 49 | 25 | 16.0 | 23.0 | 0.00 | 0.01 | 0.00 | 88 | |
| 20260505220144 | 49 | 28 | 16.0 | 24.0 | 0.00 | 0.01 | 0.00 | 88 | |
| 20260505215640 | 49 | 15 | 15.0 | 24.0 | 0.00 | 0.01 | 0.01 | 88 | |
| 20260505215134 | 49 | 28 | 14.0 | 24.0 | 0.00 | 0.01 | 0.01 | 88 | |
| 20260505214625 | 49 | 22 | 14.0 | 20.0 | 0.00 | 0.01 | 0.01 | 88 | |
| 20260505214118 | 49 | 26 | 14.0 | 20.0 | 0.00 | 0.01 | 0.01 | 88 | |
| 20260505213612 | 49 | 20 | 14.0 | 21.0 | 0.00 | 0.01 | 0.01 | 88 | |
| 20260505213335 | 49 | 9 | 16.0 | 23.0 | 0.00 | 0.01 | 0.01 | 88 | |
| 20260505212602 | 50 | 5 | 16.0 | 23.0 | 0.00 | 0.01 | 0.01 | 88 | |
| 20260505212322 | 50 | 5 | 17.0 | 24.0 | 0.00 | 0.01 | 0.01 | 88 | |
| 20260505211548 | 49 | 28 | 16.0 | 24.0 | 0.00 | 0.01 | 0.01 | 88 | |
| 20260505211042 | 50 | 19 | 16.0 | 21.0 | 0.00 | 0.01 | 0.01 | 88 | |
| 20260505210529 | 50 | 23 | 17.0 | 25.0 | 0.00 | 0.01 | 0.01 | 87 | |
| 20260505210029 | 50 | 27 | 18.0 | 25.0 | 0.00 | 0.01 | 0.01 | 87 | |
| 20260505205524 | 50 | 9 | 17.0 | 25.0 | 0.00 | 0.01 | 0.01 | 87 | |
| 20260505205017 | 50 | 17 | 17.0 | 26.0 | 0.00 | 0.01 | 0.01 | 87 | |
| 20260505204508 | 50 | 9 | 17.0 | 26.0 | 0.00 | 0.01 | 0.01 | 87 | |
| 20260505204002 | 50 | 31 | 16.0 | 22.0 | 0.00 | 0.01 | 0.01 | 87 | |
| 20260505203728 | 50 | 355 | 17.0 | 24.0 | 0.00 | 0.01 | 0.01 | 87 | |
| 20260505202950 | 50 | 5 | 16.0 | 26.0 | 0.00 | 0.01 | 0.01 | 87 | |
| 20260505202439 | 50 | 33 | 16.0 | 26.0 | 0.00 | 0.01 | 0.01 | 87 | |
| 20260505201938 | 50 | 5 | 18.0 | 28.0 | 0.00 | 0.01 | 0.01 | 87 | |
| 20260505201435 | 50 | 13 | 18.0 | 28.0 | 0.00 | 0.01 | 0.01 | 87 | |
| 20260505200926 | 50 | 11 | 17.0 | 27.0 | 0.00 | 0.01 | 0.01 | 87 | |
| 20260505200651 | 50 | 28 | 16.0 | 27.0 | 0.00 | 0.01 | 0.01 | 87 | |
| 20260505195916 | 50 | 13 | 16.0 | 28.0 | 0.00 | 0.01 | 0.01 | 87 | |
| 20260505195639 | 50 | 20 | 15.0 | 28.0 | 0.00 | 0.01 | 0.01 | 87 | |
| 20260505194902 | 50 | 27 | 14.0 | 23.0 | 0.00 | 0.01 | 0.01 | 88 | |
| 20260505194356 | 50 | 19 | 15.0 | 23.0 | 0.00 | 0.01 | 0.01 | 87 | |
| 20260505193850 | 50 | 28 | 16.0 | 22.0 | 0.00 | 0.01 | 0.01 | 87 | |
| 20260505193344 | 50 | 24 | 17.0 | 26.0 | 0.00 | 0.01 | 0.01 | 87 | |
| 20260505192839 | 50 | 15 | 19.0 | 26.0 | 0.00 | 0.01 | 0.01 | 87 | |
| 20260505192328 | 50 | 347 | 20.0 | 28.0 | 0.00 | 0.01 | 0.01 | 87 | |
| 20260505191826 | 50 | 5 | 20.0 | 28.0 | 0.00 | 0.01 | 0.01 | 87 |